Weather reports worldwide

Advertisment
Ponza, Italy (16280): temperature & dewpoint: 16.02.2019 22:00:00 - 22.02.2019 22:00:00 (CET)Ponza, Italy (16280): wind speed: 16.02.2019 22:00:00 - 22.02.2019 22:00:00 (CET)Ponza, Italy (16280): wind direction: 16.02.2019 22:00:00 - 22.02.2019 22:00:00 (CET)Ponza, Italy (16280): reduced air pressure: 16.02.2019 22:00:00 - 22.02.2019 22:00:00 (CET)Ponza, Italy (16280): visibility: 16.02.2019 22:00:00 - 22.02.2019 22:00:00 (CET)Ponza, Italy (16280): sunshine duration: 16.02.2019 22:00:00 - 22.02.2019 22:00:00 (CET)
Date & Time tt [°C] td [°C] ff [km/h] ff [kn] dd ppp [hPa] vv [km] sd [min]
22.02.2019 22:00:00 12,0 11,5 13 7 NNE 1021,7 4,0 -
22.02.2019 21:00:00 12,0 11,5 16 9 N 1021,3 4,0 -
22.02.2019 20:00:00 12,4 11,6 9 5 NNW 1020,7 4,0 -
22.02.2019 19:00:00 11,2 10,7 9 5 NW 1020,7 7 -
22.02.2019 18:00:00 11,0 10,4 13 7 ENE 1020,3 4,0 -
22.02.2019 17:00:00 11,6 11,0 21 11 WNW 1020,2 4,0 60
22.02.2019 16:00:00 12,2 11,1 21 11 WNW 1020,4 4,0 60
22.02.2019 15:00:00 12,0 10,6 16 9 WNW 1021,2 7 60
22.02.2019 14:00:00 11,6 10,2 22 12 WNW 1021,1 7 60
22.02.2019 13:00:00 11,4 9,8 18 10 WNW 1021,9 7 60
22.02.2019 12:00:00 11,6 10,0 11 6 WNW 1022,6 4,0 60
22.02.2019 11:00:00 11,8 10,7 9 5 NW 1023,4 4,0 36
22.02.2019 10:00:00 11,4 10,9 8 4 NW 1023,6 4,0 18
22.02.2019 09:00:00 11,0 10,9 15 8 WNW 1023,7 10 0
22.02.2019 08:00:00 11,0 10,7 11 6 WNW 1023,7 10 0
22.02.2019 07:00:00 10,6 10,6 16 9 WNW 1023,7 10 -
22.02.2019 06:00:00 10,6 10,0 18 10 WNW 1024,1 10 -
22.02.2019 05:00:00 11,0 10,5 21 11 WNW 1024,4 10 -
22.02.2019 04:00:00 11,0 10,9 22 12 WNW 1025,3 10 -
22.02.2019 03:00:00 11,0 10,9 22 12 WNW 1025,4 10 -
22.02.2019 02:00:00 11,0 10,5 24 13 WNW 1025,8 10 -
22.02.2019 01:00:00 11,0 10,5 24 13 WNW 1026,0 10 -
22.02.2019 00:00:00 11,0 10,2 22 12 WNW 1026,2 10 -
21.02.2019 23:00:00 11,0 10,7 22 12 WNW 1026,3 10 -
21.02.2019 22:00:00 11,0 10,5 21 11 WNW 1026,5 10 -
21.02.2019 21:00:00 11,0 10,5 22 12 WNW 1026,4 10 -
21.02.2019 20:00:00 11,0 10,5 21 11 WNW 1026,4 10 -
21.02.2019 19:00:00 11,0 9,7 24 13 WNW 1026,7 10 -
21.02.2019 18:00:00 11,4 9,8 24 13 WNW 1026,4 10 -
21.02.2019 17:00:00 11,6 10,0 22 12 WNW 1026,3 10 60
21.02.2019 16:00:00 12,0 9,6 15 8 WNW 1026,5 10 60
21.02.2019 15:00:00 12,6 10,1 9 5 NW 1026,6 4,0 60
21.02.2019 14:00:00 12,6 10,0 11 6 WNW 1026,8 8 60
21.02.2019 13:00:00 13,4 9,8 4 2 WSW 1027,4 8 60
21.02.2019 12:00:00 13,8 9,0 0 0 N 1027,3 8 60
21.02.2019 11:00:00 13,4 8,3 0 0 N 1027,3 4,0 60
21.02.2019 10:00:00 12,0 8,5 0 0 N 1027,2 4,0 60
21.02.2019 09:00:00 10,4 8,5 5 3 NNE 1026,7 10 60
21.02.2019 08:00:00 10,0 9,1 8 4 N 1026,5 10 0
21.02.2019 07:00:00 9,6 9,3 0 0 N 1026,1 10 -
21.02.2019 06:00:00 9,8 9,4 9 5 N 1026,2 10 0
21.02.2019 05:00:00 10,4 10,0 13 7 WNW 1025,7 9 -
21.02.2019 04:00:00 10,4 9,8 15 8 WNW 1025,7 8 -
21.02.2019 03:00:00 10,6 10,1 15 8 WNW 1025,6 4,0 -
21.02.2019 02:00:00 10,6 9,7 9 5 NNW 1025,5 4,0 -
21.02.2019 01:00:00 10,6 9,5 11 6 NNW 1025,4 10 -
21.02.2019 00:00:00 11,0 9,8 18 10 WNW 1025,0 10 -
20.02.2019 23:00:00 10,8 9,4 18 10 WNW 1024,6 10 -
20.02.2019 22:00:00 10,8 9,4 21 11 WNW 1024,9 10 -
20.02.2019 21:00:00 10,6 9,0 18 10 WNW 1024,5 10 -
20.02.2019 20:00:00 10,2 8,6 16 9 WNW 1024,6 10 -
20.02.2019 19:00:00 10,2 8,6 11 6 WNW 1023,9 20 -
20.02.2019 18:00:00 10,9 9,2 13 7 W 1023,4 10 36
20.02.2019 17:00:00 11,6 8,3 15 8 WNW 1023,3 20 60
20.02.2019 16:00:00 12,4 8,7 13 7 WNW 1023,7 20 60
20.02.2019 15:00:00 12,6 8,5 15 8 WNW 1023,7 20 60
20.02.2019 14:00:00 12,4 8,3 13 7 WNW 1024,3 20 60
20.02.2019 13:00:00 12,0 8,1 8 4 NNW 1024,4 10 60
20.02.2019 12:00:00 13,0 8,9 8 4 N 1024,5 10 60
20.02.2019 11:00:00 12,0 8,3 5 3 N 1024,5 10 60
20.02.2019 10:00:00 11,6 9,0 9 5 N 1024,3 10 60
20.02.2019 09:00:00 10,2 7,6 9 5 N 1024,4 10 60
20.02.2019 08:00:00 9,0 7,3 8 4 N 1023,6 10 30
20.02.2019 07:00:00 9,6 7,9 9 5 N 1023,3 10 -
20.02.2019 06:00:00 9,8 8,2 13 7 N 1023,3 20 -
20.02.2019 05:00:00 10,0 7,6 4 2 NW 1023,4 20 -
20.02.2019 04:00:00 10,0 6,5 4 2 NW 1023,5 20 -
20.02.2019 03:00:00 10,0 6,5 11 6 WNW 1023,5 20 -
20.02.2019 02:00:00 10,0 6,9 13 7 WNW 1023,5 20 -
20.02.2019 01:00:00 9,8 7,2 9 5 WNW 1023,6 20 -
20.02.2019 00:00:00 9,6 7,4 13 7 WNW 1023,6 20 -
19.02.2019 23:00:00 9,6 7,4 11 6 WNW 1023,6 20 -
19.02.2019 22:00:00 9,2 7,2 11 6 WNW 1023,6 20 -
19.02.2019 21:00:00 9,4 7,2 8 4 WNW 1023,4 20 -
19.02.2019 20:00:00 9,4 7,0 0 0 N 1023,3 20 -
19.02.2019 19:00:00 9,6 7,0 0 0 N 1022,9 20 -
19.02.2019 18:00:00 10,0 6,9 4 2 NE 1022,7 10 30
19.02.2019 17:00:00 10,6 6,6 4 2 N 1022,9 20 60
19.02.2019 16:00:00 11,6 7,5 5 3 W 1023,3 20 60
19.02.2019 15:00:00 11,6 7,3 4 2 NNW 1023,4 20 18
19.02.2019 14:00:00 11,4 7,7 4 2 WSW 1023,6 20 0
19.02.2019 13:00:00 11,4 7,7 5 3 W 1024,2 10 0
19.02.2019 12:00:00 11,2 7,9 4 2 N 1024,5 10 0
19.02.2019 11:00:00 11,2 7,7 5 3 WSW 1024,6 4,0 0
19.02.2019 10:00:00 10,4 7,5 0 0 N 1024,6 8 0
19.02.2019 09:00:00 10,4 7,8 0 0 N 1024,5 4,0 0
19.02.2019 08:00:00 10,0 7,6 0 0 N 1023,7 8 0
19.02.2019 07:00:00 10,2 7,8 0 0 N 1023,6 8 -
19.02.2019 06:00:00 - - - - - - - -
19.02.2019 05:00:00 10,0 7,6 9 5 WNW 1023,6 4,0 -
19.02.2019 04:00:00 10,2 7,8 5 3 NW 1023,7 4,0 -
19.02.2019 03:00:00 10,0 7,6 8 4 WNW 1023,5 4,0 -
19.02.2019 02:00:00 10,0 7,9 9 5 WNW 1024,7 10 -
19.02.2019 01:00:00 10,0 8,1 8 4 WNW 1024,7 10 -
19.02.2019 00:00:00 10,2 8,0 8 4 WSW 1024,9 10 -
18.02.2019 23:00:00 10,2 8,0 8 4 W 1024,9 10 -
18.02.2019 22:00:00 10,2 8,1 5 3 WSW 1024,8 10 -
18.02.2019 21:00:00 10,4 8,3 5 3 WNW 1024,7 10 -
18.02.2019 20:00:00 10,8 8,7 9 5 W 1024,4 10 -
18.02.2019 19:00:00 11,0 8,4 9 5 W 1024,6 10 -
18.02.2019 18:00:00 11,2 8,3 8 4 NW 1024,4 10 -
18.02.2019 17:00:00 11,8 8,8 9 5 W 1024,7 10 0
18.02.2019 16:00:00 12,0 8,7 8 4 W 1025,2 10 0
18.02.2019 15:00:00 12,4 8,5 8 4 W 1025,3 10 0
18.02.2019 14:00:00 12,6 8,5 0 0 N 1025,5 10 0
18.02.2019 13:00:00 12,2 8,3 9 5 W 1026,3 10 0
18.02.2019 12:00:00 11,8 8,3 5 3 W 1026,9 10 0
18.02.2019 11:00:00 11,8 9,0 9 5 WSW 1026,7 10 0
18.02.2019 10:00:00 11,0 9,3 4 2 WSW 1027,2 10 0
18.02.2019 09:00:00 10,6 9,0 4 2 W 1026,5 10 0
18.02.2019 08:00:00 10,2 8,8 4 2 NW 1026,5 10 0
18.02.2019 07:00:00 10,2 9,4 5 3 NW 1026,6 10 0
18.02.2019 06:00:00 10,8 10,2 9 5 WNW 1027,0 10 -
18.02.2019 05:00:00 10,4 9,8 8 4 WNW 1026,8 10 -
18.02.2019 04:00:00 10,2 9,6 9 5 W 1027,6 10 -
18.02.2019 03:00:00 10,2 9,9 8 4 W 1027,6 10 -
18.02.2019 02:00:00 10,2 9,9 13 7 WNW 1027,7 10 -
18.02.2019 01:00:00 10,2 9,9 8 4 W 1027,7 10 -
18.02.2019 00:00:00 10,4 9,8 9 5 W 1027,8 20 -
17.02.2019 23:00:00 10,4 9,6 11 6 WNW 1027,8 20 -
17.02.2019 22:00:00 10,8 10,0 15 8 WNW 1027,7 10 -
17.02.2019 21:00:00 10,4 10,0 13 7 WNW 1027,5 20 -
17.02.2019 20:00:00 10,6 10,1 13 7 WNW 1027,5 20 -
17.02.2019 19:00:00 10,6 9,7 13 7 WNW 1027,5 20 -
17.02.2019 18:00:00 11,0 9,7 13 7 W 1027,5 10 0
17.02.2019 17:00:00 11,6 9,9 13 7 WNW 1027,5 20 60
17.02.2019 16:00:00 12,8 10,9 13 7 W 1028,0 20 60
17.02.2019 15:00:00 12,8 10,9 13 7 W 1027,7 20 60
17.02.2019 14:00:00 12,4 10,6 15 8 WNW 1028,4 20 60
17.02.2019 13:00:00 12,4 10,1 16 9 WNW 1028,9 20 60
17.02.2019 12:00:00 13,0 10,5 13 7 WNW 1029,5 20 60
17.02.2019 11:00:00 12,2 10,8 11 6 WNW 1029,6 20 60
17.02.2019 10:00:00 11,4 9,3 13 7 WNW 1029,5 20 60
17.02.2019 09:00:00 11,0 9,3 13 7 NW 1029,4 20 60
17.02.2019 08:00:00 10,6 10,1 9 5 WNW 1029,2 20 18
17.02.2019 07:00:00 10,2 9,4 11 6 WNW 1028,9 20 -
17.02.2019 06:00:00 10,4 9,8 8 4 N 1028,9 20 -
17.02.2019 05:00:00 10,2 8,8 9 5 NNW 1028,9 20 -
17.02.2019 04:00:00 10,2 9,1 13 7 NNW 1028,7 20 -
17.02.2019 03:00:00 10,4 8,0 13 7 NW 1029,5 20 -
17.02.2019 02:00:00 10,6 9,2 15 8 WNW 1029,6 20 -
17.02.2019 01:00:00 11,0 9,3 21 11 WNW 1029,7 20 -
17.02.2019 00:00:00 10,6 8,9 21 11 WNW 1029,7 20 -
16.02.2019 23:00:00 10,8 10,0 15 8 WNW 1029,5 20 -
16.02.2019 22:00:00 10,6 9,7 13 7 NW 1029,5 20 -

tt = temperature
td = dewpoint
ff = wind speed
dd = wind direction
ppp = reduced air pressure
vv = visibility
sd = sunshine duration

Next stations